N9GF Weather Reports


Display with metric or nautical units.
time (UTC)temp
F
wind
direction
speed
MPH
gust
MPH
rain 1hr
in
rain 24hr
in
rain mn
in
humidity
%
barometer
mb
20260508000017 55 290 0.0 0.0 0.00 0.00 0.02 30 1006.6
20260507234512 55 290 0.0 0.0 0.00 0.00 0.02 26 1006.6
20260507233009 55 294 0.0 0.0 0.00 0.00 0.02 21 1006.9
20260507231505 54 305 0.0 0.0 0.00 0.00 0.02 11 1006.9
20260507230108 54 269 0.0 0.0 0.00 0.00 0.02 14 1007.0
20260507224556 54 355 0.0 0.0 0.00 0.00 0.02 100 1007.1
20260507223051 53 355 0.0 0.0 0.00 0.00 0.02 10 1007.5
20260507221547 53 355 0.0 0.0 0.00 0.00 0.02 22 1007.5
20260507220042 54 355 0.0 0.0 0.00 0.00 0.02 35 1007.7
20260507214545 56 76 2.0 0.0 0.00 0.00 0.00 51 1008.0
20260507213033 58 343 2.0 0.0 0.00 0.00 0.00 47 1007.5
20260507211537 60 247 1.0 0.0 0.00 0.00 0.00 44 1006.9
20260507210024 61 226 2.0 0.0 0.00 0.00 0.00 45 1006.9
20260507204523 62 318 2.0 0.0 0.00 0.00 0.00 45 1007.0
20260507203020 62 292 3.0 0.0 0.00 0.00 0.00 46 1007.0
20260507201513 61 295 3.0 0.0 0.00 0.00 0.00 45 1007.4
20260507200007 62 252 3.0 0.0 0.00 0.00 0.00 44 1007.7
20260507194503 61 279 3.0 0.0 0.00 0.00 0.00 45 1008.1
20260507193059 61 341 2.0 0.0 0.00 0.00 0.00 46 1008.3
20260507191557 59 335 2.0 0.0 0.00 0.00 0.00 47 1008.7
20260507190050 60 326 3.0 0.0 0.00 0.00 0.00 45 1008.8
20260507184545 60 239 3.0 0.0 0.00 0.00 0.00 42 1008.8
20260507183047 59 227 2.0 0.0 0.00 0.00 0.00 41 1008.9
20260507181541 59 294 2.0 0.0 0.00 0.00 0.00 41 1009.1
20260507180034 59 325 2.0 0.0 0.00 0.00 0.00 38 1009.2
20260507174528 59 296 2.0 0.0 0.00 0.00 0.00 39 1009.5
20260507173024 58 225 2.0 0.0 0.00 0.00 0.00 40 1009.7
20260507171520 58 328 1.0 0.0 0.00 0.00 0.00 40 1010.1
20260507170017 58 223 2.0 0.0 0.00 0.00 0.00 38 1010.5
20260507164510 59 281 2.0 0.0 0.00 0.00 0.00 38 1010.5
20260507163006 59 238 2.0 0.0 0.00 0.00 0.00 38 1010.8
20260507161503 59 229 2.0 0.0 0.00 0.00 0.00 37 1011.2
20260507160058 58 251 1.0 0.0 0.00 0.00 0.00 38 1011.5
20260507154553 56 322 1.0 0.0 0.00 0.00 0.00 39 1011.6
20260507153100 55 346 1.0 0.0 0.00 0.00 0.00 40 1011.8
20260507151548 53 267 1.0 0.0 0.00 0.00 0.00 41 1011.9
20260507150040 51 229 1.0 0.0 0.00 0.00 0.00 42 1012.2
20260507144536 50 327 1.0 0.0 0.00 0.00 0.00 43 1012.5
20260507143031 49 342 1.0 0.0 0.00 0.00 0.00 43 1012.6
20260507141527 47 323 0.0 0.0 0.00 0.00 0.00 43 1012.7
20260507140022 46 267 0.0 0.0 0.00 0.00 0.00 43 1012.6
20260507134518 45 265 0.0 0.0 0.00 0.00 0.00 43 1012.7
20260507133014 44 242 0.0 0.0 0.00 0.00 0.00 41 1013.2
20260507131509 43 355 0.0 0.0 0.00 0.00 0.00 40 1013.1
20260507130011 41 355 0.0 0.0 0.00 0.00 0.00 38 1013.2
20260507124500 40 355 0.0 0.0 0.00 0.00 0.00 28 1013.1
20260507123057 38 355 0.0 0.0 0.00 0.00 0.00 4 1012.9
20260507121553 37 355 0.0 0.0 0.00 0.00 0.00 100 1012.7
20260507120048 35 355 0.0 0.0 0.00 0.00 0.00 100 1012.6
20260507114604 34 355 0.0 0.0 0.00 0.00 0.00 100 1012.6
20260507113039 34 355 0.0 0.0 0.00 0.00 0.00 100 1012.5
20260507111534 34 355 0.0 0.0 0.00 0.00 0.00 100 1012.5
20260507110036 33 355 0.0 0.0 0.00 0.00 0.00 100 1012.5
20260507104526 34 355 0.0 0.0 0.00 0.00 0.00 1 1012.5
20260507103021 33 355 0.0 0.0 0.00 0.00 0.00 4 1012.5
20260507101518 34 355 0.0 0.0 0.00 0.00 0.00 7 1012.5
20260507100021 34 355 0.0 0.0 0.00 0.00 0.00 8 1012.5
20260507094508 34 355 0.0 0.0 0.00 0.00 0.00 11 1012.5
20260507093004 34 355 0.0 0.0 0.00 0.00 0.00 12 1012.5
20260507091600 34 355 0.0 0.0 0.00 0.00 0.00 14 1012.5
20260507090103 34 355 0.0 0.0 0.00 0.00 0.00 16 1012.6
20260507084552 35 355 0.0 0.0 0.00 0.00 0.00 19 1012.6
20260507083048 35 355 0.0 0.0 0.00 0.00 0.00 24 1012.6
20260507081547 35 355 0.0 0.0 0.00 0.00 0.00 25 1012.5
20260507080044 36 355 0.0 0.0 0.00 0.00 0.00 27 1012.6
20260507074549 36 355 0.0 0.0 0.00 0.00 0.00 31 1012.6
20260507073044 36 355 0.0 0.0 0.00 0.00 0.00 35 1012.6
20260507071540 37 355 0.0 0.0 0.00 0.00 0.00 37 1012.7
20260507070039 37 355 0.0 0.0 0.00 0.00 0.00 39 1012.8
20260507064535 37 355 0.0 0.0 0.00 0.00 0.00 42 1012.8
20260507063048 37 355 0.0 0.0 0.00 0.00 0.00 44 1012.8
20260507061534 38 355 0.0 0.0 0.00 0.00 0.00 46 1012.9
20260507060042 38 355 0.0 0.0 0.00 0.00 0.00 47 1012.9
20260507054527 39 355 0.0 0.0 0.00 0.00 0.00 49 1013.0
20260507053025 39 355 0.0 0.0 0.00 0.00 0.00 50 1012.9
20260507051524 40 355 0.0 0.0 0.00 0.00 0.00 52 1013.0
20260507050020 40 355 0.0 0.0 0.00 0.00 0.00 53 1012.9
20260507044518 41 355 0.0 0.0 0.00 0.00 0.00 54 1012.9
20260507043011 42 355 0.0 0.0 0.00 0.00 0.00 55 1012.9
20260507041507 42 355 0.0 0.0 0.00 0.00 0.00 55 1012.8
20260507040002 43 355 0.0 0.0 0.00 0.00 0.00 55 1012.9
20260507034609 43 355 0.0 0.0 0.00 0.00 0.00 55 1012.8
20260507033101 44 355 0.0 0.0 0.00 0.00 0.00 54 1012.8
20260507031552 45 355 0.0 0.0 0.00 0.00 0.00 52 1013.0
20260507030046 45 355 0.0 0.0 0.00 0.00 0.00 50 1012.8
20260507024541 46 355 0.0 0.0 0.00 0.00 0.00 50 1012.8
20260507023036 46 355 0.0 0.0 0.00 0.00 0.00 48 1012.6
20260507021532 47 5 0.0 0.0 0.00 0.00 0.00 47 1012.3
20260507020039 47 5 0.0 0.0 0.00 0.00 0.00 46 1012.1
20260507014523 48 348 0.0 0.0 0.00 0.00 0.00 44 1012.1
20260507013038 48 360 1.0 0.0 0.00 0.00 0.00 44 1012.0
20260507011515 49 355 1.0 0.0 0.00 0.00 0.00 43 1012.0
20260507010010 49 320 2.0 0.0 0.00 0.00 0.00 42 1011.9
20260507004506 50 348 2.0 0.0 0.00 0.00 0.00 41 1011.9
20260507003001 51 319 2.0 0.0 0.00 0.00 0.00 41 1011.9
20260507001558 52 331 2.0 0.0 0.00 0.00 0.00 40 1011.7